GFSSW_925_thetae_336.txt.gz
Theta_e
310 312 313 314 316 316 318 320 319 317 318 317 316 316 316 316 317 309 304 301 304 311 312 311 310 311 310 309 308 305 310 309 311 309 311 308 310 308 308 310 309 307 308 308 314
308 308 311 312 312 312 315 316 320 318 318 318 317 316 316 316 314 308 302 300 305 308 312 309 310 308 308 309 309 309 308 309 308 307 309 310 309 309 310 310 310 309 309 310 314
306 307 306 310 311 311 310 313 317 319 318 318 318 317 316 314 307 303 308 301 303 312 312 310 311 308 309 309 309 307 309 306 308 307 309 309 309 308 308 309 307 308 308 309 311
307 304 305 306 309 310 310 310 312 315 317 317 317 317 317 313 305 308 311 307 305 311 310 309 308 308 308 309 308 309 307 306 308 310 308 308 308 309 306 308 308 305 308 308 310
308 306 304 304 305 307 309 310 310 312 313 315 316 315 316 309 309 308 311 305 314 313 310 307 308 307 308 307 308 309 309 308 308 309 308 308 308 307 305 304 304 305 305 308 310
308 307 306 304 304 304 306 307 309 309 310 310 313 314 316 315 314 308 310 313 312 310 309 307 307 307 307 308 308 308 308 309 308 309 308 309 308 309 306 305 303 303 305 307 308
306 307 307 305 304 304 303 305 307 309 309 309 309 312 314 316 313 311 311 310 311 309 307 308 308 308 307 309 306 308 310 309 308 308 309 307 308 308 306 306 306 305 302 304 307
304 305 307 306 305 304 303 302 304 306 308 308 307 309 313 314 314 314 314 313 309 309 308 308 309 307 309 307 307 309 307 309 308 307 309 307 310 309 306 305 306 305 303 303 303
304 304 307 306 305 304 303 302 302 303 306 307 306 308 311 312 312 312 313 309 309 308 308 308 308 307 309 308 308 305 308 307 308 307 309 305 308 308 306 306 306 305 304 303 302
303 304 303 307 305 305 303 304 301 301 303 304 306 309 309 311 311 312 312 309 307 306 307 307 306 307 305 307 311 309 308 307 308 308 308 308 306 306 306 307 307 306 306 305 304
302 303 304 302 306 305 304 303 301 302 303 304 304 307 308 308 306 307 310 308 306 306 308 306 308 310 308 307 307 307 308 308 308 309 310 309 308 308 308 308 307 308 307 306 305
302 302 303 303 303 305 304 301 300 302 305 302 303 306 307 308 307 305 308 309 307 308 305 308 310 306 306 307 307 307 309 309 309 310 309 309 309 307 307 307 308 308 307 307 306
302 302 303 304 303 305 304 301 300 302 305 304 303 304 308 308 310 306 307 309 308 307 307 308 308 306 308 307 308 307 308 309 309 309 308 309 308 308 308 307 306 306 307 307 307
301 302 303 303 304 304 303 301 300 300 303 304 306 305 308 307 309 308 307 310 309 309 306 307 305 307 307 309 308 310 306 308 309 309 309 307 310 307 308 308 308 308 306 307 306
301 302 302 302 302 302 300 301 299 299 303 300 306 306 307 310 307 307 307 309 311 309 308 307 305 307 308 308 307 308 305 307 307 308 309 308 309 306 306 308 308 307 305 304 302
302 301 302 303 298 299 299 298 299 300 301 299 308 308 309 309 307 307 308 308 308 309 308 307 305 305 306 305 306 305 306 306 304 306 310 307 309 308 308 309 309 308 307 301 303
301 301 301 302 297 298 298 299 300 301 299 303 309 307 307 308 309 308 310 311 312 313 314 309 308 307 306 307 306 308 308 311 310 308 312 305 308 311 308 306 306 307 304 301 303
301 301 301 298 298 299 299 299 300 293 298 302 306 307 307 306 308 308 311 312 309 309 310 312 313 307 306 307 308 309 310 312 313 313 311 305 310 309 305 303 301 301 304 306 306
301 301 300 296 297 298 298 299 295 295 299 303 307 307 309 308 306 308 310 311 310 308 311 312 312 306 305 306 308 308 311 308 310 299 310 307 306 305 304 303 303 301 302 305 306
301 299 296 297 297 296 297 298 294 299 303 304 306 306 307 309 306 308 308 308 310 308 306 309 312 307 306 307 307 308 308 311 313 316 314 312 310 311 309 305 304 305 303 303 305
294 296 295 297 297 298 298 295 296 299 303 304 303 301 305 306 306 308 307 306 309 309 307 307 309 308 307 309 310 308 310 309 310 311 316 314 311 305 308 304 304 304 303 304 304
292 295 295 297 294 296 298 295 299 301 302 303 305 304 304 305 307 307 307 307 306 308 309 307 307 307 309 307 306 308 310 310 314 312 308 311 310 301 302 302 304 306 305 303 302
295 295 296 295 295 293 294 297 298 300 300 302 303 304 303 304 305 307 307 304 305 307 309 308 309 308 307 307 304 307 307 308 308 307 310 312 310 300 301 302 303 305 305 302 303
291 294 292 295 291 291 293 295 295 299 300 298 300 302 304 305 302 304 306 305 303 306 309 309 306 309 309 308 308 309 308 307 310 313 311 310 308 303 302 302 302 302 302 302 302
288 288 287 293 292 290 290 293 295 296 299 301 297 301 302 304 304 304 303 305 306 309 309 309 309 305 307 307 307 309 309 307 308 310 312 311 307 305 302 301 300 300 301 302 302
287 289 283 287 293 293 291 291 296 297 297 298 298 295 302 303 303 304 305 304 306 308 307 308 301 301 309 308 306 308 308 307 308 309 308 306 307 304 304 300 301 300 302 303 303
287 287 289 292 290 292 290 293 296 296 296 297 300 299 302 302 301 301 301 302 304 306 309 309 303 305 311 305 309 310 306 307 308 306 308 309 308 305 305 301 303 301 303 304 304

GFSSW_925_thetae_339.txt.gz
Theta_e
309 306 308 311 312 313 313 314 316 316 319 318 317 316 316 316 315 314 309 301 301 307 311 314 311 310 311 309 307 304 310 308 309 309 310 306 310 307 307 309 308 308 308 308 313
310 309 306 306 309 310 312 311 312 315 318 318 318 318 316 316 314 311 311 306 300 305 312 310 309 308 309 309 308 309 309 308 307 307 309 308 308 308 309 309 310 309 308 310 313
310 310 307 307 305 310 310 311 310 311 314 317 318 318 318 316 306 303 311 312 302 306 312 310 310 308 309 307 308 308 310 306 308 306 308 309 308 307 308 309 309 310 308 310 311
309 309 309 306 304 305 306 310 310 309 311 313 316 317 317 316 317 305 308 308 305 310 310 309 306 308 308 309 308 309 307 306 307 308 307 308 307 308 306 310 307 306 307 309 311
306 308 308 306 305 304 304 305 307 308 309 312 312 314 314 311 312 315 313 306 308 313 308 306 307 306 308 307 308 309 308 307 307 308 307 307 307 307 305 305 304 304 306 308 311
307 306 307 307 306 306 305 303 304 305 309 308 310 310 312 317 313 314 309 312 315 314 309 306 307 306 307 307 308 307 307 308 307 307 307 308 307 308 306 304 303 302 304 305 308
305 306 304 305 307 307 306 306 303 302 305 308 309 310 311 312 313 311 310 310 311 309 306 308 307 307 305 307 306 307 310 308 307 307 308 307 309 308 306 305 305 304 303 303 306
302 303 305 303 305 306 307 306 304 302 304 307 309 308 310 310 310 311 313 314 314 312 308 308 308 306 307 306 306 308 307 309 307 306 308 307 310 308 305 304 306 305 304 303 303
303 302 303 304 303 306 306 305 304 302 303 305 305 306 308 310 309 308 312 313 311 310 308 307 307 306 307 308 308 305 308 308 308 306 308 306 308 307 306 305 306 305 305 304 304
302 302 303 304 304 304 306 305 303 303 303 303 305 305 306 308 308 312 311 312 307 306 306 306 306 307 306 307 311 309 309 306 307 307 307 307 306 306 305 306 306 306 306 306 306
302 302 303 303 304 304 306 306 303 301 302 302 302 304 305 306 307 308 311 308 305 305 307 305 308 310 309 307 307 307 307 308 306 306 308 308 307 308 307 307 307 307 308 307 308
302 303 303 303 304 304 303 304 302 299 301 300 301 303 304 306 308 305 309 310 308 308 305 307 309 306 306 306 307 306 308 307 308 309 309 309 309 308 307 307 308 309 309 308 306
301 302 302 303 303 303 304 304 302 301 302 302 301 301 303 305 307 305 307 308 311 309 307 308 307 305 307 306 308 306 308 308 309 308 307 308 309 309 308 306 306 306 307 307 308
301 301 302 302 302 302 302 302 302 300 301 300 303 302 302 305 307 306 307 310 309 312 307 307 304 306 306 308 307 309 305 307 308 309 310 306 310 306 307 307 307 307 306 306 305
300 301 301 301 301 301 302 302 300 298 301 298 304 304 303 305 305 306 307 307 310 309 308 310 304 305 307 307 307 308 306 307 307 308 308 307 309 306 305 308 308 307 306 304 303
300 300 301 301 301 301 301 300 297 300 300 298 304 307 307 306 307 306 307 307 308 309 308 308 303 305 306 305 306 303 305 305 304 306 310 307 307 306 308 309 309 307 306 304 302
300 299 300 300 300 300 300 296 299 299 297 298 306 307 306 307 307 307 310 310 312 313 313 311 308 305 304 306 305 306 307 310 310 308 311 304 307 309 306 306 305 306 304 301 303
299 299 297 300 300 299 298 298 299 296 296 301 305 305 308 305 307 307 309 310 309 310 311 313 315 307 306 306 307 307 307 310 310 312 309 304 310 309 305 304 302 301 301 303 305
298 298 299 300 299 298 297 299 299 294 298 301 306 307 307 306 305 308 309 309 309 309 311 312 312 305 305 305 307 308 309 306 308 298 308 307 305 305 304 303 302 301 301 303 305
298 298 299 300 298 296 298 299 293 297 302 303 305 303 300 307 307 307 308 307 308 308 306 308 311 307 306 306 306 308 308 309 311 311 312 311 309 310 309 305 303 303 302 302 305
297 298 297 298 296 296 299 296 295 299 302 302 300 297 303 304 305 305 307 307 307 308 307 306 308 308 306 308 310 308 309 309 309 312 314 313 312 304 308 305 303 303 302 303 304
295 298 297 295 296 297 296 294 298 301 301 302 302 304 300 302 304 305 305 304 303 307 310 306 307 306 309 307 306 309 309 310 313 313 308 311 311 301 300 302 302 304 303 303 302
296 294 296 296 297 296 293 296 297 299 299 300 301 302 302 302 302 305 305 303 303 306 309 308 310 311 310 309 305 308 307 309 309 308 310 313 311 299 300 302 303 304 304 301 302
293 296 293 294 290 295 293 296 297 299 300 299 299 302 302 303 302 306 306 305 303 305 309 308 308 310 309 308 308 309 307 308 310 313 312 312 309 302 301 302 302 303 303 303 302
290 290 289 295 292 293 294 295 295 297 299 299 299 298 299 298 300 303 302 305 305 305 307 308 305 307 307 304 306 309 310 307 310 311 313 312 307 303 302 301 301 301 302 303 303
287 286 282 293 293 294 296 292 296 295 296 298 299 297 295 294 299 298 303 304 305 305 304 306 307 300 302 306 303 306 308 307 308 309 311 307 306 304 301 299 300 300 301 302 302
287 288 292 295 295 293 291 294 296 296 297 296 296 295 294 295 298 300 300 301 303 304 306 307 302 304 310 302 301 306 305 307 307 307 307 308 309 303 302 300 301 300 300 303 304

GFSSW_925_thetae_345.txt.gz
Theta_e
311 311 311 310 309 310 311 312 313 313 312 312 314 318 319 318 318 318 318 315 308 303 313 317 314 314 314 314 315 315 316 317 319 318 318 317 316 317 316 318 317 318 318 318 319
310 311 311 311 309 308 310 311 311 311 311 311 312 316 318 318 319 317 316 312 311 303 315 315 315 313 315 315 314 314 314 316 318 318 317 317 316 318 317 318 318 318 315 317 319
308 308 310 311 311 309 309 309 308 309 309 309 311 314 318 318 318 315 314 314 313 311 309 313 314 314 315 315 315 315 316 316 316 314 315 315 316 316 317 318 319 319 319 317 319
307 307 306 308 309 309 308 309 309 307 307 307 309 312 314 316 317 311 313 313 312 314 307 310 314 315 315 316 316 315 314 315 315 313 314 314 315 316 316 318 316 317 318 318 319
305 305 305 305 307 309 307 307 309 308 307 306 307 307 313 317 318 315 314 314 313 312 309 309 313 315 316 315 315 315 315 314 314 313 313 313 313 315 316 316 316 313 315 318 319
303 306 304 304 305 307 308 306 306 307 305 306 309 307 309 316 314 314 312 313 313 310 309 309 311 312 314 314 314 314 315 314 314 314 313 312 313 314 314 315 315 315 315 315 317
302 302 304 305 303 304 306 308 306 306 306 305 305 308 308 311 312 312 311 312 312 311 310 310 311 313 313 313 313 313 313 313 314 313 313 313 313 313 314 314 313 314 314 315 315
303 300 301 303 304 304 303 306 307 306 307 305 303 308 309 308 309 311 313 313 312 313 313 313 311 312 312 313 312 312 313 314 313 314 313 313 315 316 316 315 314 315 314 314 314
303 300 300 302 302 304 305 303 305 307 308 306 306 307 307 307 308 309 310 312 312 312 312 313 311 313 313 314 314 314 313 314 313 314 314 313 314 315 316 314 314 315 316 316 316
301 301 302 302 304 303 304 305 305 306 307 306 305 306 306 307 307 308 308 309 311 312 313 313 313 311 313 315 317 314 314 313 314 314 314 314 314 314 315 314 314 315 317 317 316
303 303 303 303 303 304 304 305 305 305 306 306 306 306 308 307 306 308 309 309 310 312 316 314 315 315 311 312 313 313 315 315 314 313 313 314 314 314 315 315 315 316 317 317 318
302 303 302 303 303 304 304 304 303 304 305 304 305 305 305 304 306 308 309 310 310 314 312 316 318 315 312 311 312 313 315 315 314 314 312 315 316 315 315 315 316 316 316 317 318
303 302 302 303 301 303 303 303 303 304 305 304 305 305 306 304 305 305 309 310 310 311 312 315 314 313 312 312 312 312 314 314 315 314 314 314 315 315 315 315 315 316 315 316 317
302 301 301 302 301 302 303 303 303 303 304 302 302 303 305 305 304 304 307 310 311 312 310 311 312 313 313 312 312 313 312 312 312 313 314 314 318 316 317 317 316 315 316 315 316
302 301 301 300 301 302 302 302 302 301 304 301 303 303 304 305 304 305 304 309 310 311 311 311 310 313 315 312 312 313 312 312 312 313 313 313 313 313 315 315 315 315 315 315 316
302 300 300 301 301 301 302 302 301 304 303 303 304 305 305 304 305 305 305 306 309 310 311 310 309 310 313 311 310 310 311 311 311 312 316 314 313 314 315 314 314 315 315 316 316
301 300 300 300 301 301 301 302 303 303 301 304 305 304 304 305 305 305 306 307 309 312 311 312 311 311 311 312 311 310 312 314 316 318 317 313 314 314 314 314 314 315 316 314 313
301 301 299 299 300 301 301 302 303 303 304 302 302 304 305 304 305 305 305 308 307 308 308 311 314 312 311 311 312 311 313 314 316 317 316 312 313 313 313 313 313 313 313 313 312
300 300 300 299 300 300 299 302 302 303 301 300 301 303 305 304 304 305 306 308 306 307 309 310 310 310 310 310 311 311 312 312 312 312 314 314 313 313 313 312 312 312 312 312 311
300 299 299 299 300 299 300 302 302 300 300 301 300 302 305 306 305 307 305 306 308 306 307 308 311 309 311 310 311 310 311 312 311 316 317 312 314 314 314 313 312 313 313 311 310
299 298 298 298 299 297 300 301 302 300 300 300 300 302 301 304 306 306 306 305 305 306 307 308 309 310 310 312 312 312 312 311 311 312 313 314 313 311 312 313 314 313 313 312 310
296 299 299 299 299 300 300 301 301 301 300 300 300 300 301 302 305 306 305 304 306 306 307 307 308 311 313 311 310 310 311 312 314 313 312 313 313 312 313 313 312 312 311 310 310
297 299 299 299 300 301 301 301 300 300 301 301 302 301 302 303 304 306 306 305 305 306 307 307 309 310 310 310 312 312 311 311 312 312 312 313 312 309 308 309 310 311 310 309 309
297 298 297 297 300 301 301 301 300 300 300 302 303 302 302 303 305 306 306 306 306 306 306 307 311 309 308 307 308 313 312 312 312 314 313 312 310 311 310 311 311 311 311 310 310
298 298 298 298 299 300 301 300 300 301 301 301 302 304 304 303 303 303 304 304 305 305 305 307 306 311 308 306 307 311 312 313 313 314 313 312 312 310 312 312 312 311 311 310 309
297 297 294 298 298 300 301 301 301 301 302 302 301 303 303 302 302 303 302 303 302 305 305 305 307 308 308 310 308 308 310 312 313 313 313 312 312 311 311 311 312 311 310 310 309
295 294 298 298 299 301 302 301 300 300 300 300 301 301 302 301 301 302 302 303 303 304 306 306 306 308 307 309 310 310 309 310 311 311 312 313 312 312 311 310 310 311 310 310 309

GFSSW_925_thetae_348.txt.gz
Theta_e
311 311 312 311 310 309 311 312 313 313 313 312 312 313 317 318 318 320 320 317 311 309 308 316 319 315 315 315 315 316 318 316 318 318 319 316 316 316 316 317 318 317 318 320 321
308 309 310 312 311 310 309 310 311 311 311 310 311 313 317 318 319 320 317 316 312 309 313 317 316 314 316 315 315 316 315 318 317 316 316 317 316 316 316 316 317 317 316 320 321
307 308 308 309 311 311 308 309 310 310 309 308 308 310 314 317 319 315 314 314 313 311 309 313 314 315 315 315 315 315 315 314 314 317 313 314 313 316 316 316 317 316 316 318 321
305 306 308 307 308 310 311 308 309 309 310 308 307 307 311 316 318 314 313 313 313 314 309 309 312 315 316 316 315 315 315 314 315 314 313 313 313 313 314 314 315 314 316 317 318
304 303 306 305 305 305 309 310 307 308 307 310 308 305 308 314 316 312 315 314 314 312 308 308 311 315 316 314 315 315 315 315 315 314 312 312 311 313 313 313 314 314 315 316 317
303 302 303 305 305 305 306 309 309 306 307 306 309 307 307 311 312 315 314 313 313 312 310 308 310 312 313 314 314 314 315 314 314 315 313 313 312 311 312 311 311 313 313 315 317
304 303 301 303 305 305 304 306 308 308 307 308 308 307 308 308 310 313 311 312 313 311 310 309 309 312 313 312 312 312 313 312 313 314 314 313 312 312 311 311 312 312 313 313 314
304 303 302 300 304 305 305 303 305 307 308 308 307 306 307 307 307 309 313 312 313 313 313 312 311 312 313 313 313 313 311 313 312 313 314 312 312 313 312 311 312 312 311 312 313
302 303 302 300 301 303 303 305 303 304 306 308 306 306 306 306 307 308 308 313 313 312 312 313 312 313 312 314 314 314 313 312 312 311 313 312 313 313 312 312 313 313 312 312 312
303 302 302 300 301 302 301 304 304 305 306 307 307 306 306 306 307 307 309 310 312 312 313 313 314 311 310 312 311 312 313 312 312 313 311 313 313 313 313 313 313 313 313 314 314
304 302 302 300 302 303 304 304 305 304 306 307 307 305 307 305 306 308 309 308 309 311 314 314 315 315 311 310 312 312 313 314 315 313 313 313 313 313 313 312 312 312 313 312 314
304 303 303 302 302 303 304 304 303 304 306 305 306 306 306 304 306 307 309 310 310 311 311 312 315 314 313 311 311 312 313 313 314 314 312 313 313 312 312 312 312 313 312 312 314
303 303 302 303 302 302 303 303 304 304 305 304 306 306 306 305 306 306 308 310 310 310 311 312 311 312 313 315 312 311 312 313 314 314 313 313 313 313 313 313 313 313 312 312 312
303 303 302 302 302 302 303 303 303 303 304 303 303 305 305 306 306 305 305 309 310 310 310 310 310 311 313 314 314 312 311 312 313 314 314 312 314 312 314 313 313 313 312 312 312
301 304 303 302 300 302 302 303 302 301 303 301 302 302 303 305 304 305 304 307 310 309 310 310 309 310 311 312 313 313 312 312 312 312 312 312 311 311 311 313 313 313 313 312 312
303 304 302 302 300 300 301 302 301 304 303 303 303 304 305 305 305 305 305 305 308 309 309 309 308 308 309 310 312 312 312 312 312 312 314 312 312 312 311 312 313 313 311 312 311
304 303 301 301 301 301 302 302 303 303 300 303 305 304 305 305 305 305 306 306 308 310 309 308 308 308 308 309 311 313 312 315 316 316 315 311 312 311 311 311 311 312 311 310 311
303 302 299 299 300 301 302 301 304 301 301 303 303 304 304 304 305 305 305 307 306 307 306 307 306 308 309 309 310 313 312 314 315 315 313 311 312 312 311 311 311 310 310 312 309
300 302 300 299 300 301 300 302 302 301 301 301 302 303 304 304 304 304 305 305 306 306 308 306 307 305 308 309 310 312 313 311 311 307 311 311 311 310 311 311 310 310 309 308 308
301 300 300 299 300 301 301 303 301 300 299 300 301 302 302 304 304 304 305 305 305 305 305 306 307 306 306 308 310 311 311 312 312 314 313 310 311 312 311 311 309 308 308 308 307
301 298 299 300 299 300 301 300 301 300 300 300 300 300 300 301 303 303 303 305 304 305 306 306 306 306 307 309 311 312 312 312 310 311 312 310 308 308 309 310 310 308 308 308 307
293 300 299 299 300 300 301 298 300 300 300 300 301 300 300 300 301 302 305 304 304 305 305 306 307 308 306 307 310 311 310 311 311 310 311 311 309 310 311 309 309 310 309 307 306
297 298 299 298 298 300 300 299 298 300 300 300 300 300 300 300 300 302 302 303 303 305 306 306 308 309 304 306 309 311 311 310 310 309 311 312 310 308 307 308 309 308 306 307 307
297 298 297 298 299 299 298 299 301 299 300 300 301 300 301 300 300 300 304 304 305 306 307 306 309 309 306 304 304 310 311 311 310 312 311 310 309 307 307 308 309 309 307 306 306
297 299 297 299 297 298 299 298 298 298 300 300 300 300 301 299 301 301 303 304 303 304 306 306 303 304 305 304 306 308 308 311 312 311 311 309 309 308 306 307 307 307 307 307 307
296 296 295 296 297 299 299 298 300 299 299 300 300 301 301 301 301 301 301 302 302 304 304 305 298 300 298 305 305 307 307 307 312 312 311 310 310 308 307 307 308 308 308 307 306
297 296 298 298 297 298 298 298 298 299 299 299 300 301 301 301 301 302 302 302 302 303 301 302 299 296 298 302 305 306 304 306 307 308 310 313 309 309 309 309 309 308 307 307 306